Vorticity
nan nan nan nan nan nan nan nan nan nan nan nan nan nan nan nan nan nan nan nan nan nan nan nan nan nan nan nan nan nan nan nan nan nan nan nan nan nan nan nan nan nan nan
nan 10 9 9 9 9 8 9 9 9 8 8 9 9 8 8 9 9 8 7 8 9 9 9 11 12 12 11 12 11 8 8 12 10 7 8 10 9 8 8 9 8 nan
nan 10 10 10 9 8 8 8 8 8 8 8 8 9 8 8 8 9 10 10 9 10 11 10 10 11 11 12 11 10 8 11 11 8 8 9 10 10 8 8 7 7 nan
nan 9 9 9 8 9 8 8 8 9 10 10 9 9 8 8 8 9 10 10 10 9 9 11 12 14 12 11 11 10 9 9 9 8 8 9 10 9 9 10 7 7 nan
nan 9 8 9 9 9 8 8 9 8 8 10 10 9 8 7 11 10 10 11 10 9 9 9 10 10 13 15 14 12 9 8 9 8 7 8 10 12 10 6 8 9 nan
nan 9 9 9 9 8 9 9 7 8 10 7 9 11 8 9 12 8 8 9 10 10 9 8 10 10 8 10 12 14 14 12 7 7 9 9 10 7 9 10 9 8 nan
nan 11 11 9 8 8 9 8 8 9 8 9 8 8 11 14 10 8 7 7 8 8 10 9 7 10 11 9 8 10 8 10 15 12 10 10 9 10 7 8 10 7 nan
nan 10 10 9 8 9 8 9 10 10 9 9 9 10 9 13 13 10 7 6 8 7 7 9 10 8 11 9 8 9 9 9 11 12 15 14 14 15 9 9 9 6 nan
nan 10 10 10 10 10 9 11 13 11 12 11 10 11 9 9 12 12 8 7 7 8 8 9 9 9 9 9 9 8 8 7 6 10 14 15 16 15 11 8 10 7 nan
nan 10 12 12 12 11 12 11 10 11 11 11 11 11 11 10 10 11 10 7 9 10 10 9 8 12 11 9 7 8 8 9 8 7 6 9 10 8 9 10 10 7 nan
nan 13 13 13 13 12 11 11 10 10 11 9 9 12 12 10 10 13 9 5 10 10 10 10 12 14 8 7 8 11 12 10 9 9 7 8 9 9 10 10 8 11 nan
nan 11 11 12 12 12 10 9 11 12 11 10 9 10 10 11 11 12 10 7 7 9 9 10 14 13 11 9 7 11 12 8 7 8 8 9 9 9 11 11 11 12 nan
nan 9 10 10 10 11 10 8 10 10 9 9 10 9 10 11 14 12 11 12 7 7 7 10 15 11 7 7 12 12 7 7 9 9 9 8 8 9 9 9 9 10 nan
nan 10 8 8 8 8 9 10 11 11 10 10 11 12 11 10 12 11 10 12 12 9 11 11 11 10 8 10 13 7 7 10 9 9 8 8 10 9 7 9 8 8 nan
nan 9 8 9 10 8 9 11 10 8 11 11 10 9 10 9 8 14 13 8 11 13 10 10 11 11 10 10 8 10 10 10 9 9 10 10 9 8 9 10 9 10 nan
nan 10 10 9 11 10 11 13 9 7 7 7 10 9 9 4 5 9 15 16 13 13 9 11 11 10 10 10 10 10 11 10 10 11 11 10 10 11 12 10 11 10 nan
nan 11 10 11 11 10 9 9 12 16 11 9 9 11 7 4 7 8 13 20 21 14 10 10 11 11 12 12 11 11 12 13 12 11 10 9 12 13 13 10 9 9 nan
nan 10 11 10 9 10 8 9 8 8 11 19 17 13 11 10 10 14 17 11 10 12 12 11 11 13 13 10 9 11 14 14 12 12 11 10 10 11 9 10 10 9 nan
nan 7 8 8 8 8 9 9 9 10 9 10 15 19 14 10 9 14 11 5 10 11 12 11 11 12 13 13 13 10 8 9 13 14 12 13 11 10 8 9 10 11 nan
nan 10 12 11 11 11 9 9 9 9 9 9 9 14 17 11 9 13 13 11 9 10 12 12 12 11 11 13 12 12 11 11 10 10 10 12 13 11 11 10 11 11 nan
nan 10 13 14 12 12 13 12 11 10 10 10 10 12 12 10 11 12 14 16 14 12 12 12 12 12 11 11 10 11 9 9 10 10 13 12 14 14 11 12 12 10 nan
nan 10 10 11 13 12 12 14 13 13 12 12 13 14 10 9 11 13 13 14 15 14 13 12 11 11 13 13 13 12 10 10 10 11 10 12 11 9 13 16 15 14 nan
nan 13 12 12 12 11 12 13 15 16 15 15 14 11 11 13 13 13 13 13 14 14 16 15 14 13 13 14 15 13 13 14 15 14 10 11 11 14 13 11 12 13 nan
nan 14 13 13 15 16 16 15 16 13 14 14 13 13 12 12 11 12 13 13 13 15 14 14 12 12 16 17 17 17 16 14 15 14 15 14 11 12 12 12 13 13 nan
nan 15 15 14 15 17 15 13 12 12 12 11 12 12 12 11 11 10 12 13 13 14 13 11 10 10 10 11 12 14 18 19 17 21 23 16 11 11 12 12 9 13 nan
nan nan nan nan nan nan nan nan nan nan nan nan nan nan nan nan nan nan nan nan nan nan nan nan nan nan nan nan nan nan nan nan nan nan nan nan nan nan nan nan nan nan nan
CAPE
2082 1736 1570 1274 1029 722 654 597 559 359 306 245 250 394 159 112 84 81 125 79 70 84 96 174 253 307 610 856 730 861 51 0 5 9 8 6 4 5 4 4 10 11 2
2244 1722 1490 1219 961 805 751 597 323 358 267 318 329 359 209 51 1 14 19 19 40 53 65 191 216 178 30 530 404 386 13 0 2 2 4 5 4 10 5 2 1 2 0
1968 1577 1438 1111 881 907 858 554 408 383 332 289 306 305 178 0 0 0 0 1 1 0 22 59 30 151 12 56 428 32 0 1 1 2 6 6 6 7 5 0 1 0 0
1988 1662 1571 1125 1059 1029 792 677 573 396 312 367 298 309 157 13 0 0 0 1 4 4 6 2 2 5 72 7 79 10 5 3 4 4 3 6 7 7 7 2 0 0 0
2031 1744 1613 1346 1204 1117 801 660 491 473 367 236 108 249 139 50 0 0 0 0 2 5 8 4 5 1 0 1 6 7 8 3 3 3 3 5 8 6 7 9 3 0 0
2023 1785 1579 1426 1298 1213 962 755 645 459 266 84 2 61 145 45 0 0 0 0 0 3 6 2 1 0 0 0 0 0 2 5 5 5 4 4 5 7 4 1 2 0 2
1890 1747 1678 1630 1442 1417 1244 961 772 646 311 70 19 0 12 99 0 0 0 0 0 0 1 6 0 0 0 2 1 0 0 0 0 14 7 11 8 8 5 4 2 2 15
1873 1675 1656 1679 1714 1539 1401 1285 1127 975 672 612 1 0 0 0 0 0 0 0 0 0 0 0 3 1 1 3 6 8 8 7 3 1 16 8 1 4 0 3 2 12 32
1825 1612 1551 1636 1614 1642 1385 698 692 802 607 309 41 0 0 0 0 0 0 0 0 0 0 0 0 1 0 0 0 2 5 1 0 0 0 0 0 0 2 17 34 45 70
2149 1830 1455 1483 1538 1036 726 319 445 273 549 48 11 51 0 0 0 0 0 26 2 0 0 0 0 0 0 0 0 0 2 1 0 0 0 0 0 0 0 24 39 47 54
1602 1339 1323 1338 1341 1194 841 619 567 534 395 389 59 11 1 0 0 0 0 2 0 0 0 0 0 0 0 0 0 0 0 0 0 0 0 0 0 0 2 0 0 38 39
1132 1033 914 732 467 537 592 362 313 359 266 164 107 13 12 3 0 0 0 0 0 0 0 0 0 0 0 0 0 0 0 0 0 0 0 0 0 0 0 0 0 0 0
450 215 109 67 12 35 88 69 78 196 136 61 3 108 80 13 10 0 0 0 0 0 0 1 0 0 0 0 0 0 0 0 0 0 0 0 0 0 0 0 0 0 0
110 105 249 248 186 167 75 113 139 93 132 173 93 55 79 89 3 9 1 1 1 0 0 0 0 0 0 0 0 0 0 0 0 0 0 0 0 0 0 0 0 0 0
180 224 340 226 145 124 23 8 0 1 1 2 7 6 4 96 118 1 2 2 1 0 1 3 0 0 0 0 0 0 0 0 0 0 0 0 0 0 4 1 0 0 0
467 359 193 104 66 39 4 9 0 0 0 0 0 1 2 0 0 1 1 1 1 0 3 2 3 0 0 0 0 0 0 0 0 0 0 0 0 0 0 0 0 0 0
121 69 28 4 15 20 2 0 0 0 1 1 1 0 0 0 0 1 1 1 1 0 4 6 1 6 16 0 0 0 0 0 0 0 0 0 0 0 0 0 0 0 0
33 0 46 5 1 1 0 0 0 1 4 7 0 0 0 2 0 0 0 1 1 1 2 4 1 4 12 0 1 0 0 0 0 0 0 0 0 0 0 0 0 0 0
138 116 106 56 29 3 5 0 0 0 0 3 5 0 0 0 0 0 1 5 4 4 4 5 3 1 6 16 1 1 0 0 0 0 0 0 0 0 0 0 0 0 0
345 47 31 229 219 179 170 114 93 65 58 29 4 12 8 0 0 1 0 0 4 8 9 5 4 3 0 0 0 0 1 2 1 0 0 0 0 0 0 0 0 0 0
0 8 0 20 88 199 279 199 144 148 125 89 79 28 0 0 0 0 0 0 0 1 6 9 8 8 10 6 6 4 2 0 0 0 0 0 0 0 2 0 0 0 0
0 0 0 0 0 26 68 67 113 153 151 116 119 54 0 0 0 0 0 0 3 9 10 11 13 4 7 14 15 12 12 9 8 1 0 0 0 0 0 0 1 1 0
0 0 0 0 0 0 4 55 77 61 72 54 11 0 0 0 0 0 0 2 4 9 12 5 1 0 0 3 4 9 22 41 58 26 0 0 0 1 0 0 0 0 0
7 11 7 3 1 2 10 34 14 0 0 1 0 0 0 0 0 0 1 2 3 7 5 1 0 0 0 0 0 2 5 5 11 38 54 7 0 0 0 0 0 0 0
14 10 9 8 8 8 7 3 2 1 2 6 4 5 10 8 9 11 16 17 16 14 0 1 0 0 0 0 0 0 0 0 0 0 0 2 2 1 1 0 0 0 0
7 7 11 11 10 12 10 9 9 8 6 8 9 8 7 10 17 8 5 7 19 19 11 24 13 1 0 0 0 0 0 0 0 0 0 4 3 1 1 1 3 1 0